FW1218 Weather Reports


time (UTC)temp
C
wind
direction
speed
KPH
gust
KPH
rain 1hr
cm
rain 24hr
cm
rain mn
cm
humidity
%
barometer
mb
20260510060021 10 8 1.6 4.8 0.00 0.28 0.00 95 1010.6
20260510054520 10 17 1.6 3.2 0.00 0.28 0.00 96 1010.5
20260510053042 10 44 1.6 3.2 0.00 0.28 0.00 95 1010.1
20260510051515 11 117 0.0 0.0 0.00 0.28 0.00 95 1009.9
20260510050015 11 116 0.0 1.6 0.00 0.28 0.00 95 1009.9
20260510044512 11 115 0.0 1.6 0.00 0.28 0.00 94 1010.1
20260510043017 11 140 0.0 3.2 0.00 0.28 0.00 94 1010.1
20260510041510 11 109 0.0 1.6 0.00 0.28 0.00 94 1010.1
20260510040009 11 120 0.0 3.2 0.00 0.28 0.00 94 1010.3
20260510034506 11 120 0.0 1.6 0.00 0.28 0.28 94 1010.2
20260510033006 11 117 1.6 3.2 0.00 0.28 0.28 93 1010.2
20260510031509 11 134 0.0 3.2 0.00 0.28 0.28 93 1010.2
20260510030005 12 122 0.0 0.0 0.00 0.28 0.28 93 1010.2
20260510024506 12 120 0.0 4.8 0.00 0.28 0.28 93 1010.2
20260510023007 12 129 0.0 3.2 0.00 0.28 0.28 93 1010.0
20260510021512 11 110 0.0 0.0 0.00 0.28 0.28 92 1009.9
20260510020003 11 125 0.0 0.0 0.00 0.28 0.28 92 1009.9
20260510014506 11 96 0.0 0.0 0.00 0.28 0.28 92 1009.7
20260510013102 12 90 0.0 0.0 0.00 0.28 0.28 91 1009.5
20260510011500 12 73 0.0 0.0 0.00 0.28 0.28 91 1009.4
20260510010109 12 73 0.0 0.0 0.00 0.28 0.28 90 1009.2
20260510004602 12 69 0.0 1.6 0.00 0.28 0.28 90 1009.1
20260510003059 12 105 0.0 0.0 0.00 0.28 0.28 88 1009.0
20260510001559 12 141 0.0 0.0 0.00 0.28 0.28 86 1008.8
20260509234558 14 141 0.0 1.6 0.00 0.28 0.28 81 1008.6
20260509233058 15 103 0.0 3.2 0.00 0.28 0.28 78 1008.6
20260509231556 16 108 0.0 3.2 0.00 0.28 0.28 75 1008.5
20260509230057 17 114 0.0 3.2 0.00 0.28 0.28 75 1008.5
20260509224556 17 120 0.0 1.6 0.00 0.28 0.28 73 1008.6
20260509223059 17 115 0.0 3.2 0.00 0.28 0.28 72 1008.6
20260509221554 17 125 0.0 6.4 0.00 0.28 0.28 73 1008.6
20260509220052 17 117 0.0 1.6 0.00 0.28 0.28 73 1008.7
20260509214609 17 93 0.0 1.6 0.00 0.28 0.28 75 1008.8
20260509213050 16 113 0.0 4.8 0.00 0.28 0.28 77 1008.9
20260509211549 15 44 0.0 3.2 0.00 0.28 0.28 77 1009.1
20260509210052 16 51 0.0 3.2 0.00 0.28 0.28 76 1009.3
20260509204548 16 92 0.0 3.2 0.00 0.28 0.28 78 1008.9
20260509203059 16 50 0.0 1.6 0.00 0.28 0.28 77 1008.9
20260509201547 16 51 1.6 4.8 0.00 0.28 0.28 76 1009.0
20260509200045 17 39 0.0 1.6 0.00 0.28 0.28 70 1009.0
20260509194548 17 322 0.0 6.4 0.00 0.28 0.28 69 1009.3
20260509193041 17 303 1.6 8.0 0.00 0.28 0.28 71 1009.5
20260509191553 17 176 0.0 6.4 0.00 0.28 0.28 72 1009.7
20260509190036 17 216 0.0 3.2 0.00 0.28 0.28 80 1009.7
20260509184544 16 311 0.0 8.0 0.00 0.28 0.28 80 1010.0
20260509183043 15 251 0.0 4.8 0.00 0.28 0.28 87 1010.2
20260509181526 13 101 0.0 4.8 0.00 0.28 0.28 90 1010.5
20260509180026 13 284 0.0 3.2 0.00 0.28 0.28 91 1010.6
20260509174526 12 94 0.0 1.6 0.00 0.28 0.28 92 1010.6
20260509173025 12 127 0.0 1.6 0.00 0.28 0.28 89 1010.5
20260509171526 13 124 0.0 1.6 0.00 0.28 0.28 88 1010.8
20260509170024 13 285 0.0 0.0 0.00 0.28 0.28 88 1010.8
20260509164524 12 283 0.0 4.8 0.03 0.28 0.28 86 1010.8
20260509163033 12 230 0.0 6.4 0.03 0.28 0.28 87 1011.2
20260509161523 12 150 0.0 1.6 0.10 0.28 0.28 91 1011.2
20260509160022 12 217 0.0 0.0 0.20 0.28 0.28 92 1011.0
20260509154524 11 46 0.0 0.0 0.23 0.25 0.25 92 1010.7
20260509153023 11 46 0.0 3.2 0.25 0.25 0.25 90 1010.9
20260509151518 11 295 0.0 1.6 0.18 0.18 0.18 86 1011.4
20260509150017 12 295 0.0 1.6 0.08 0.08 0.08 83 1011.3
20260509144519 12 302 0.0 4.8 0.03 0.03 0.03 77 1011.7
20260509143015 13 266 1.6 4.8 0.00 0.00 0.00 74 1011.7
20260509141514 13 276 0.0 4.8 0.00 0.00 0.00 72 1011.7
20260509140014 13 256 0.0 6.4 0.00 0.00 0.00 70 1011.4
20260509134509 13 274 0.0 3.2 0.00 0.00 0.00 70 1010.9
20260509133008 12 290 1.6 4.8 0.00 0.00 0.00 73 1011.1
20260509131504 12 14 0.0 3.2 0.00 0.00 0.00 72 1010.8
20260509130006 12 34 0.0 1.6 0.00 0.00 0.00 74 1010.8
20260509124503 12 280 0.0 1.6 0.00 0.00 0.00 74 1010.8
20260509123004 12 247 0.0 0.0 0.00 0.00 0.00 74 1010.8
20260509121505 12 265 0.0 1.6 0.00 0.00 0.00 71 1010.9
20260509120002 12 221 0.0 3.2 0.00 0.00 0.00 70 1010.8
20260509114502 12 303 0.0 0.0 0.00 0.00 0.00 73 1010.6
20260509113002 12 282 0.0 3.2 0.00 0.00 0.00 66 1010.3
20260509111600 12 245 0.0 6.4 0.00 0.00 0.00 68 1010.3
20260509110109 12 276 1.6 4.8 0.00 0.00 0.00 69 1010.3
20260509104600 11 258 0.0 1.6 0.00 0.00 0.00 72 1010.0
20260509103104 12 214 0.0 3.2 0.00 0.00 0.00 72 1010.2
20260509101613 12 265 0.0 6.4 0.00 0.00 0.00 69 1010.1
20260509100058 12 312 3.2 8.0 0.00 0.00 0.00 68 1009.9
20260509094657 12 262 0.0 8.0 0.00 0.00 0.00 69 1009.9
20260509093056 12 262 0.0 6.4 0.00 0.00 0.00 71 1010.0
20260509091601 12 279 0.0 6.4 0.00 0.00 0.00 71 1010.1
20260509090100 11 283 1.6 8.0 0.00 0.00 0.00 75 1010.3
20260509084555 11 107 0.0 0.0 0.00 0.00 0.00 74 1010.4
20260509083057 11 213 0.0 1.6 0.00 0.00 0.00 74 1010.6
20260509081549 11 322 0.0 0.0 0.00 0.00 0.00 73 1010.6
20260509080053 12 280 0.0 0.0 0.00 0.00 0.00 72 1010.6
20260509074552 12 280 0.0 4.8 0.00 0.00 0.00 70 1010.5
20260509073050 12 318 0.0 1.6 0.00 0.00 0.00 73 1010.7
20260509071547 11 123 0.0 0.0 0.00 0.00 0.00 78 1010.7
20260509070045 11 124 0.0 0.0 0.00 0.00 0.00 78 1010.8
20260509064543 11 124 0.0 0.0 0.00 0.00 0.00 77 1010.8
20260509063041 11 124 0.0 0.0 0.00 0.00 0.00 77 1010.8
20260509061543 12 124 0.0 0.0 0.00 0.00 0.00 75 1010.7